Location: Aragoneses
(41.0275°N, 4.3847°W)
Time: 23:12:27
(UTC+00:00)

Cosmos 1606 Rocket - Visible Passes

Search period start: 12 March 2026 00:00
Search period end: 22 March 2026 00:00
Orbit: 597 x 624 km, 82.5° (Epoch: 12 March)

Date Brightness Start Highest point End Pass type
(mag) Time Alt. Az. Time Alt. Az. Time Alt. Az.
12 Mar 4.7 05:53:26 10° SSE 05:57:35 49° E 06:01:48 10° NNE visible
14 Mar 6.9 04:47:30 10° ESE 04:49:30 13° E 04:51:31 10° ENE visible
15 Mar 6.2 05:00:27 10° SE 05:03:49 22° E 05:07:13 10° NE visible
16 Mar 5.1 05:14:12 10° SSE 05:18:13 39° E 05:22:17 10° NNE visible
17 Mar 3.9 05:28:23 10° S 05:32:41 71° E 05:37:03 10° NNE visible
18 Mar 7.0 04:09:30 10° E 04:10:12 10° E 04:10:54 10° ENE visible
18 Mar 3.5 05:42:56 10° SSW 05:47:13 64° W 05:51:36 10° N visible
19 Mar 6.3 04:21:30 10° SE 04:24:29 18° E 04:27:29 10° NE visible
20 Mar 5.4 04:35:01 10° SSE 04:38:50 31° E 04:42:44 10° NNE visible
21 Mar 4.2 04:49:02 10° S 04:53:16 56° E 04:57:35 10° NNE visible
